Regional Weather Roundup
Issued by NWS

Home | Current Version | Previous Version | Graphics & Text | Print | Product List | Glossary On
Versions: 1 2 3 4 5 6 7 8 9 10 11 12 13 14 15 16 17 18 19 20 21 22 23 24 25 26 27 28 29 30 31 32 33 34 35 36 37 38 39 40 41 42 43 44 45 46 47 48 49 50
000
ASUS43 KBIS 251610
RWRND
NORTH DAKOTA REGIONAL WEATHER ROUNDUP
NATIONAL WEATHER SERVICE EASTERN NORTH DAKOTA/GRAND FORKS ND
1000 AM CST SUN FEB 25 2018

  NOTE: "FAIR" INDICATES FEW OR NO CLOUDS BELOW 12,000 FEET WITH NO
  SIGNIFICANT WEATHER AND/OR OBSTRUCTIONS TO VISIBILITY.

NDZ001>003-009>011-017-251700-
...NORTHWEST NORTH DAKOTA...

CITY           SKY/WX    TMP DP  RH WIND       PRES   REMARKS
WILLISTON      FAIR      15   8  73 SW7       29.65F WCI   5
MINOT          CLOUDY    24  16  71 W16       29.60R WCI  11
MINOT AFB      CLOUDY    23  16  74 W15         N/A  WCI  10
$$

NDZ018>021-031>035-040>046-251700-
...SOUTHWEST NORTH DAKOTA...

CITY           SKY/WX    TMP DP  RH WIND       PRES   REMARKS
BISMARCK       FAIR      24  15  68 W15       29.69R WCI  11
DICKINSON      FAIR      17   8  67 W15       29.63S WCI   2
GARRISON         N/A     21  15  78 W17       29.63R WCI   7
HETTINGER      FAIR      16   8  71 W18       29.70R WCI   0
$$

NDZ004>008-012>016-024-026-027-054-251700-
...NORTHEAST NORTH DAKOTA...

CITY           SKY/WX    TMP DP  RH WIND       PRES   REMARKS
GRAND FORKS    CLOUDY    18  13  80 W6        29.56R WCI  10
GRAND FORKS AF CLOUDY    22  16  78 W14       29.55R WCI   9
DEVILS LAKE    FLURRIES  19  15  84 W22       29.56R WCI   2
$$

NDZ022-023-025-028>030-036>039-047>053-251700-
...SOUTHEAST NORTH DAKOTA...

CITY           SKY/WX    TMP DP  RH WIND       PRES   REMARKS
JAMESTOWN      PTSUNNY   23  17  78 W17       29.61R WCI   9
FARGO          CLOUDY    23  19  85 W10       29.61R WCI  12
WAHPETON       CLOUDY    21  18  86 W18       29.65R VSB 1   WCI   6
$$




USA.gov is the U.S. government's official web portal to all federal, state and local government web resources and services.